User: anonymous   Login
Location: Unspecified
(0.0000°N, 0.0000°E)
Time: 06:05:01
(UTC+00:00)
Language:

PROBA 2 - Orbit

View from above orbital plane
View from above orbital plane
View from above satellite
View from above satellite

Ground track
Ground track

The orbit data is extracted from the following two-line orbital elements,

1 36037U 09059B   14304.14537231  .00000300  00000-0  83968-4 0  5582
2 36037 098.2797 135.2054 0014088 055.1237 058.6430 14.52675730264735
Epoch (UTC): 31 October 2014 03:29:20
Eccentricity: 0.0014088
inclination: 98.2797°
perigee height: 707 km
apogee height: 727 km
right ascension of ascending node: 135.2054°
argument of perigee: 55.1237°
revolutions per day: 14.52675730
mean anomaly at epoch: 58.6430°
orbit number at epoch: 26473

The dashed part of the orbit path shows where the satellite is in the earth's shadow,  

DLR